Regional Weather Roundup
Issued by NWS Little Rock, AR

Home | Current Version | Previous Version | Text Only | Print | Product List | Glossary Off
Versions: 1 2 3 4 5 6 7 8 9 10 11 12 13 14 15 16 17 18 19 20 21 22 23 24 25 26 27

000
ASUS44 KLZK 181905
RWRLZK

WEATHER ROUNDUP FOR ARKANSAS
NATIONAL WEATHER SERVICE LITTLE ROCK AR
200 PM CDT FRI APR 18 2014

NOTE: "FAIR" INDICATES FEW OR NO CLOUDS BELOW 12,000 FEET WITH NO
SIGNIFICANT WEATHER AND/OR OBSTRUCTIONS TO VISIBILITY.

ARZ001-003-010-029-182000-
NORTHWEST ARKANSAS

CITY           SKY/WX    TMP DP  RH WIND       PRES   REMARKS
FAYETTEVILLE   MOSUNNY   69  41  36 CALM      30.23F
FORT SMITH     SUNNY     74  39  28 MISG      30.21F
HARRISON       SUNNY     70  40  33 SE7       30.24F
BENTONVILLE    SUNNY     70  39  32 CALM      30.24F
ROGERS         SUNNY     69  35  28 CALM      30.24F
SILOAM SPGS    SUNNY     70  43  37 E7        30.24F
HIGHFILL       SUNNY     69  39  33 E6        30.23F
SPRINGDALE     SUNNY     68  39  34 CALM      30.25F
$$

ARZ004-005-016-182000-
NORTH CENTRAL ARKANSAS

CITY           SKY/WX    TMP DP  RH WIND       PRES   REMARKS
BATESVILLE     SUNNY     73  45  35 SE7G17    30.22F
FLIPPIN        SUNNY     70  41  35 NE7       30.23F
MTN HOME       SUNNY     72  38  29 E9        30.22F
$$

ARZ040-041-182000-
WEST CENTRAL ARKANSAS

CITY           SKY/WX    TMP DP  RH WIND       PRES   REMARKS
MENA           MOSUNNY   72  36  26 CALM      30.21S
MOUNT IDA      SUNNY     71  43  36 SE8       30.19F
$$

ARZ009-017-025-026-028-182000-
NORTHEAST ARKANSAS

CITY           SKY/WX    TMP DP  RH WIND       PRES   REMARKS
CORNING          N/A     72  41  33 NE6       30.25F
JONESBORO      SUNNY     71  45  39 E9        30.23F
NEWPORT        SUNNY     70  47  43 NE8       30.24F
WALNUT RIDGE   SUNNY     72  46  40 NE10      30.24F
BLYTHEVILLE    CLOUDY    70  49  47 NE8       30.24F
$$

ARZ022-023-033-042-044-182000-
CENTRAL ARKANSAS

CITY           SKY/WX    TMP DP  RH WIND       PRES   REMARKS
LITTLE ROCK    MOSUNNY   73  45  36 NE10G17   30.22F
N LITTLE ROCK  MOSUNNY   73  47  39 E9G18     30.22F
JACKSONVILLE   SUNNY     72  44  36 E16       30.22F
SEARCY         MOSUNNY   72  49  44 NE10      30.24F
HOT SPRINGS    PTSUNNY   71  42  35 NE6       30.21F
RUSSELLVILLE   PTSUNNY   72  43  35 CALM      30.21F
CLINTON        CLOUDY    72  45  37 CALM      30.22F
$$

ARZ036-182000-
EAST ARKANSAS

CITY           SKY/WX    TMP DP  RH WIND       PRES   REMARKS
WEST MEMPHIS   CLOUDY    72  49  44 VRB3      30.20F
$$

ARZ050-053-066-070-073-182000-
SOUTHWEST ARKANSAS

CITY           SKY/WX    TMP DP  RH WIND       PRES   REMARKS
ARKADELPHIA    FAIR      71  49  45 E8        30.21F
CAMDEN         PTSUNNY   72  48  43 MISG      30.20F
TEXARKANA      MOSUNNY   70  49  47 NE3       30.19F
EL DORADO      CLOUDY    70  52  52 N10       30.20S
DE QUEEN       MOSUNNY   74  45  35 N3        30.17F
$$

ARZ056-057-069-182000-
SOUTHEAST ARKANSAS

CITY           SKY/WX    TMP DP  RH WIND       PRES   REMARKS
PINE BLUFF     MOSUNNY   72  50  45 N14G22    30.20F
STUTTGART      CLOUDY    72  46  40 N10       30.22F
MONTICELLO     MOSUNNY   73  48  41 NE12G17   30.19F

$$





USA.gov is the U.S. government's official web portal to all federal, state and local government web resources and services.